Location: Allos
(44.2333°N, 6.6333°E)
Time: 12:10:54
(UTC+00:00)

ISS - Visible Passes

Search period start: 08 March 2021 00:00
Search period end: 18 March 2021 00:00
Orbit: 417 x 422 km, 51.6° (Epoch: 07 March)

Date Brightness Start Highest point End Pass type
(mag) Time Alt. Az. Time Alt. Az. Time Alt. Az.
08 Mar -0.6 03:13:11 15° NE 03:13:11 15° NE 03:14:05 10° ENE visible
08 Mar -3.2 04:46:09 17° NW 04:48:37 55° NNE 04:51:55 10° ESE visible
09 Mar -2.7 04:00:40 38° N 04:01:03 39° NNE 04:04:14 10° E visible
10 Mar -0.9 03:15:17 18° ENE 03:15:17 18° ENE 03:16:29 10° E visible
10 Mar -3.7 04:48:16 20° WNW 04:50:26 61° SW 04:53:44 10° SE visible
11 Mar -3.8 04:02:59 83° NE 04:02:59 83° NE 04:06:18 10° ESE visible
12 Mar -1.0 03:17:52 17° ESE 03:17:52 17° ESE 03:18:44 10° ESE visible
12 Mar -2.4 04:50:52 19° WSW 04:52:02 23° SW 04:54:44 10° S visible
13 Mar -2.3 04:05:55 26° S 04:05:55 26° S 04:07:46 10° SSE visible
17 Mar -2.5 19:12:23 10° SSW 19:14:33 26° SSE 19:14:33 26° SSE visible
